Satellite: ARISSAT1 Catalog number: 37772 Epoch time: 11363.87162240 Element set: 457 Inclination: 051.6257 deg RA of node: 241.6168 deg Eccentricity: 0.0009645 Arg of perigee: 209.4273 deg Mean anomaly: 150.6405 deg Mean motion: 16.12063625 rev/day Decay rate: 1.100589e-02 rev/day^2 Epoch rev: 2323 Checksum: 284
Satellite: SRMSAT Catalog number: 37839 Epoch time: 11362.94519084 Element set: 0058 Inclination: 019.9668 deg RA of node: 315.6119 deg Eccentricity: 0.0019732 Arg of perigee: 136.6080 deg Mean anomaly: 223.5896 deg Mean motion: 14.12012478 rev/day Decay rate: 6.19e-06 rev/day^2 Epoch rev: 01101 Checksum: 300
Satellite: JUGNU Catalog number: 37841 Epoch time: 11363.89940659 Element set: 57 Inclination: 019.9721 deg RA of node: 311.3696 deg Eccentricity: 0.0011789 Arg of perigee: 122.7748 deg Mean anomaly: 237.3887 deg Mean motion: 14.10104352 rev/day Decay rate: 2.64e-06 rev/day^2 Epoch rev: 1112 Checksum: 299
Satellite: RAX-2 Catalog number: 37853 Epoch time: 11363.93544338 Element set: 55 Inclination: 101.7078 deg RA of node: 321.8944 deg Eccentricity: 0.0252547 Arg of perigee: 115.7027 deg Mean anomaly: 247.0481 deg Mean motion: 14.78300937 rev/day Decay rate: 3.047e-05 rev/day^2 Epoch rev: 922 Checksum: 298
Satellite: AUBIESAT Catalog number: 37854 Epoch time: 11363.85913429 Element set: 58 Inclination: 101.7113 deg RA of node: 321.8355 deg Eccentricity: 0.0254510 Arg of perigee: 115.5228 deg Mean anomaly: 247.2523 deg Mean motion: 14.78534086 rev/day Decay rate: 3.173e-05 rev/day^2 Epoch rev: 920 Checksum: 281
Satellite: HRBE Catalog number: 37855 Epoch time: 11362.98088781 Element set: 0068 Inclination: 101.7105 deg RA of node: 320.5563 deg Eccentricity: 0.0254660 Arg of perigee: 117.9030 deg Mean anomaly: 244.8202 deg Mean motion: 14.78472747 rev/day Decay rate: 2.997e-05 rev/day^2 Epoch rev: 00907 Checksum: 311
/EX
participants (1)
-
Ray Hoad